| time (UTC) | temp F | wind direction | speed MPH | gust MPH | rain 1hr in | rain 24hr in | rain mn in | humidity % | barometer mb |
| 20260508214535 | 76 | 35 | 3.0 | 9.0 | 0.00 | 0.00 | 0.00 | 60 | 1017.5 |
| 20260508214029 | 77 | 135 | 3.0 | 8.0 | 0.00 | 0.00 | 0.00 | 58 | 1017.6 |
| 20260508213529 | 77 | 339 | 2.0 | 7.0 | 0.00 | 0.00 | 0.00 | 58 | 1017.6 |
| 20260508213046 | 78 | 137 | 1.0 | 7.0 | 0.00 | 0.00 | 0.00 | 59 | 1017.6 |
| 20260508212529 | 77 | 19 | 1.0 | 6.0 | 0.00 | 0.00 | 0.00 | 57 | 1017.7 |
| 20260508212031 | 78 | 119 | 2.0 | 6.0 | 0.00 | 0.00 | 0.00 | 56 | 1017.7 |
| 20260508211538 | 77 | 5 | 2.0 | 7.0 | 0.00 | 0.00 | 0.00 | 57 | 1017.6 |
| 20260508211029 | 76 | 116 | 1.0 | 7.0 | 0.00 | 0.00 | 0.00 | 59 | 1017.6 |
| 20260508210530 | 76 | 19 | 2.0 | 6.0 | 0.00 | 0.00 | 0.00 | 60 | 1017.7 |
| 20260508210042 | 75 | 113 | 1.0 | 6.0 | 0.00 | 0.00 | 0.00 | 62 | 1017.8 |
| 20260508205530 | 75 | 129 | 2.0 | 8.0 | 0.00 | 0.00 | 0.00 | 60 | 1017.8 |
| 20260508205031 | 75 | 130 | 3.0 | 8.0 | 0.00 | 0.00 | 0.00 | 61 | 1017.8 |
| 20260508204541 | 75 | 98 | 2.0 | 9.0 | 0.00 | 0.00 | 0.00 | 62 | 1017.9 |
| 20260508204029 | 74 | 147 | 2.0 | 9.0 | 0.00 | 0.00 | 0.00 | 63 | 1017.9 |
| 20260508203529 | 74 | 151 | 3.0 | 9.0 | 0.00 | 0.00 | 0.00 | 59 | 1017.9 |
| 20260508203045 | 74 | 169 | 2.0 | 7.0 | 0.00 | 0.00 | 0.00 | 60 | 1017.8 |
| 20260508202532 | 74 | 98 | 2.0 | 8.0 | 0.00 | 0.00 | 0.00 | 61 | 1017.9 |
| 20260508202029 | 74 | 115 | 2.0 | 8.0 | 0.00 | 0.00 | 0.00 | 61 | 1017.9 |
| 20260508201541 | 74 | 104 | 3.0 | 9.0 | 0.00 | 0.00 | 0.00 | 61 | 1018.0 |
| 20260508201030 | 74 | 148 | 2.0 | 9.0 | 0.00 | 0.00 | 0.00 | 62 | 1018.0 |
| 20260508200529 | 73 | 74 | 2.0 | 9.0 | 0.00 | 0.00 | 0.00 | 64 | 1018.0 |
| 20260508200049 | 73 | 144 | 2.0 | 8.0 | 0.00 | 0.00 | 0.00 | 63 | 1018.1 |
| 20260508195529 | 73 | 139 | 3.0 | 8.0 | 0.00 | 0.00 | 0.00 | 64 | 1018.1 |
| 20260508195030 | 73 | 94 | 3.0 | 8.0 | 0.00 | 0.00 | 0.00 | 64 | 1018.1 |
| 20260508194539 | 73 | 133 | 2.0 | 8.0 | 0.00 | 0.00 | 0.00 | 65 | 1018.1 |
| 20260508194028 | 72 | 150 | 3.0 | 8.0 | 0.00 | 0.00 | 0.00 | 64 | 1018.3 |
| 20260508193529 | 73 | 134 | 2.0 | 7.0 | 0.00 | 0.00 | 0.00 | 63 | 1018.2 |
| 20260508193039 | 73 | 153 | 1.0 | 7.0 | 0.00 | 0.00 | 0.00 | 65 | 1018.2 |
| 20260508192529 | 72 | 95 | 2.0 | 7.0 | 0.00 | 0.00 | 0.00 | 67 | 1018.2 |
| 20260508192031 | 72 | 90 | 2.0 | 7.0 | 0.00 | 0.00 | 0.00 | 67 | 1018.2 |
| 20260508191537 | 72 | 108 | 4.0 | 7.0 | 0.00 | 0.00 | 0.00 | 67 | 1018.3 |
| 20260508191031 | 72 | 88 | 2.0 | 9.0 | 0.00 | 0.00 | 0.00 | 66 | 1018.3 |
| 20260508190530 | 72 | 109 | 2.0 | 9.0 | 0.00 | 0.00 | 0.00 | 66 | 1018.3 |
| 20260508190050 | 72 | 63 | 3.0 | 9.0 | 0.00 | 0.00 | 0.00 | 64 | 1018.3 |
| 20260508185528 | 72 | 133 | 4.0 | 9.0 | 0.00 | 0.00 | 0.00 | 63 | 1018.3 |
| 20260508185030 | 73 | 134 | 3.0 | 8.0 | 0.00 | 0.00 | 0.00 | 62 | 1018.3 |
| 20260508184539 | 74 | 167 | 4.0 | 7.0 | 0.00 | 0.00 | 0.00 | 60 | 1018.2 |
| 20260508184030 | 75 | 136 | 2.0 | 5.0 | 0.00 | 0.00 | 0.00 | 60 | 1018.2 |
| 20260508183532 | 74 | 37 | 1.0 | 5.0 | 0.00 | 0.00 | 0.00 | 57 | 1018.2 |
| 20260508183039 | 74 | 0 | 2.0 | 5.0 | 0.00 | 0.00 | 0.00 | 56 | 1018.2 |
| 20260508182530 | 74 | 71 | 1.0 | 4.0 | 0.00 | 0.00 | 0.00 | 56 | 1018.1 |
| 20260508182030 | 74 | 57 | 1.0 | 4.0 | 0.00 | 0.00 | 0.00 | 58 | 1018.1 |
| 20260508181604 | 73 | 333 | 2.0 | 4.0 | 0.00 | 0.00 | 0.00 | 56 | 1018.2 |
| 20260508181029 | 73 | 0 | 1.0 | 4.0 | 0.00 | 0.00 | 0.00 | 57 | 1018.2 |
| 20260508180529 | 72 | 161 | 1.0 | 4.0 | 0.00 | 0.00 | 0.00 | 57 | 1018.2 |
| 20260508180043 | 72 | 112 | 1.0 | 4.0 | 0.00 | 0.00 | 0.00 | 61 | 1018.1 |
| 20260508175529 | 71 | 5 | 2.0 | 4.0 | 0.00 | 0.00 | 0.00 | 61 | 1018.1 |
| 20260508175031 | 70 | 0 | 1.0 | 5.0 | 0.00 | 0.00 | 0.00 | 63 | 1018.1 |
| 20260508174535 | 70 | 159 | 2.0 | 5.0 | 0.00 | 0.00 | 0.00 | 61 | 1018.1 |
| 20260508174032 | 70 | 144 | 2.0 | 5.0 | 0.00 | 0.00 | 0.00 | 60 | 1018.2 |
| 20260508173529 | 70 | 117 | 1.0 | 4.0 | 0.00 | 0.00 | 0.00 | 61 | 1018.1 |
| 20260508173036 | 70 | 0 | 1.0 | 5.0 | 0.00 | 0.00 | 0.00 | 59 | 1018.2 |
| 20260508172531 | 70 | 141 | 1.0 | 5.0 | 0.00 | 0.00 | 0.00 | 56 | 1018.1 |
| 20260508172032 | 71 | 138 | 2.0 | 4.0 | 0.00 | 0.00 | 0.00 | 51 | 1018.1 |
| 20260508171538 | 71 | 175 | 1.0 | 4.0 | 0.00 | 0.00 | 0.00 | 55 | 1018.1 |
| 20260508171029 | 70 | 173 | 1.0 | 5.0 | 0.00 | 0.00 | 0.00 | 55 | 1018.0 |
| 20260508170529 | 70 | 136 | 2.0 | 5.0 | 0.00 | 0.00 | 0.00 | 55 | 1018.0 |
| 20260508170043 | 70 | 137 | 1.0 | 3.0 | 0.00 | 0.00 | 0.00 | 54 | 1018.0 |
| 20260508165529 | 70 | 173 | 1.0 | 4.0 | 0.00 | 0.00 | 0.00 | 53 | 1017.9 |
| 20260508165033 | 70 | 352 | 0.0 | 4.0 | 0.00 | 0.00 | 0.00 | 55 | 1017.9 |
| 20260508164543 | 70 | 5 | 0.0 | 3.0 | 0.00 | 0.00 | 0.00 | 51 | 1017.9 |
| 20260508164030 | 70 | 333 | 1.0 | 3.0 | 0.00 | 0.00 | 0.00 | 51 | 1017.9 |
| 20260508163529 | 70 | 0 | 0.0 | 3.0 | 0.00 | 0.00 | 0.00 | 50 | 1017.9 |
| 20260508163036 | 69 | 0 | 0.0 | 3.0 | 0.00 | 0.00 | 0.00 | 50 | 1018.0 |
| 20260508162529 | 69 | 341 | 1.0 | 3.0 | 0.00 | 0.00 | 0.00 | 50 | 1017.9 |
| 20260508162029 | 68 | 16 | 1.0 | 3.0 | 0.00 | 0.00 | 0.00 | 53 | 1017.9 |
| 20260508161537 | 67 | 352 | 0.0 | 2.0 | 0.00 | 0.00 | 0.00 | 58 | 1017.9 |
| 20260508161029 | 67 | 0 | 0.0 | 1.0 | 0.00 | 0.00 | 0.00 | 53 | 1017.9 |
| 20260508160528 | 67 | 0 | 0.0 | 2.0 | 0.00 | 0.00 | 0.00 | 55 | 1017.9 |
| 20260508160043 | 66 | 0 | 0.0 | 2.0 | 0.00 | 0.00 | 0.00 | 54 | 1017.9 |
| 20260508155531 | 66 | 0 | 0.0 | 1.0 | 0.00 | 0.00 | 0.00 | 54 | 1017.9 |
| 20260508155030 | 66 | 0 | 0.0 | 2.0 | 0.00 | 0.00 | 0.00 | 54 | 1018.0 |
| 20260508154552 | 65 | 0 | 0.0 | 2.0 | 0.00 | 0.00 | 0.00 | 56 | 1017.9 |
| 20260508154029 | 65 | 0 | 0.0 | 2.0 | 0.00 | 0.00 | 0.00 | 57 | 1017.9 |
| 20260508153531 | 64 | 298 | 0.0 | 2.0 | 0.00 | 0.00 | 0.00 | 58 | 1017.9 |
| 20260508153040 | 64 | 270 | 0.0 | 2.0 | 0.00 | 0.00 | 0.00 | 58 | 1017.9 |
| 20260508152529 | 64 | 0 | 0.0 | 2.0 | 0.00 | 0.00 | 0.00 | 58 | 1017.8 |
| 20260508152029 | 63 | 0 | 0.0 | 2.0 | 0.00 | 0.00 | 0.00 | 59 | 1017.7 |
| 20260508151539 | 62 | 0 | 0.0 | 2.0 | 0.00 | 0.00 | 0.00 | 62 | 1017.7 |
| 20260508151030 | 62 | 0 | 0.0 | 1.0 | 0.00 | 0.00 | 0.00 | 64 | 1017.6 |
| 20260508150529 | 61 | 0 | 0.0 | 1.0 | 0.00 | 0.00 | 0.00 | 64 | 1017.6 |
| 20260508150038 | 61 | 0 | 0.0 | 1.0 | 0.00 | 0.00 | 0.00 | 67 | 1017.6 |
| 20260508145529 | 60 | 0 | 0.0 | 1.0 | 0.00 | 0.00 | 0.00 | 69 | 1017.6 |
| 20260508145029 | 60 | 0 | 0.0 | 1.0 | 0.00 | 0.00 | 0.00 | 68 | 1017.6 |
| 20260508144534 | 59 | 274 | 0.0 | 1.0 | 0.00 | 0.00 | 0.00 | 68 | 1017.6 |
| 20260508144029 | 59 | 0 | 0.0 | 1.0 | 0.00 | 0.00 | 0.00 | 70 | 1017.5 |
| 20260508143528 | 58 | 0 | 0.0 | 1.0 | 0.00 | 0.00 | 0.00 | 70 | 1017.5 |
| 20260508143042 | 58 | 0 | 0.0 | 1.0 | 0.00 | 0.00 | 0.00 | 71 | 1017.5 |
| 20260508142529 | 57 | 0 | 0.0 | 1.0 | 0.00 | 0.00 | 0.00 | 71 | 1017.3 |
| 20260508142029 | 57 | 0 | 0.0 | 1.0 | 0.00 | 0.00 | 0.00 | 71 | 1017.3 |
| 20260508141549 | 57 | 0 | 0.0 | 1.0 | 0.00 | 0.00 | 0.00 | 72 | 1017.3 |
| 20260508141028 | 57 | 0 | 0.0 | 1.0 | 0.00 | 0.00 | 0.00 | 72 | 1017.3 |
| 20260508140528 | 57 | 0 | 0.0 | 0.0 | 0.00 | 0.00 | 0.00 | 72 | 1017.3 |
| 20260508140051 | 57 | 0 | 0.0 | 2.0 | 0.00 | 0.00 | 0.00 | 71 | 1017.3 |
| 20260508135530 | 57 | 0 | 0.0 | 2.0 | 0.00 | 0.00 | 0.00 | 71 | 1017.3 |
| 20260508135030 | 57 | 231 | 0.0 | 0.0 | 0.00 | 0.00 | 0.00 | 70 | 1017.3 |
| 20260508134538 | 57 | 0 | 0.0 | 1.0 | 0.00 | 0.00 | 0.00 | 69 | 1017.3 |
| 20260508134029 | 57 | 0 | 0.0 | 1.0 | 0.00 | 0.00 | 0.00 | 68 | 1017.3 |
| 20260508133531 | 57 | 0 | 0.0 | 1.0 | 0.00 | 0.00 | 0.00 | 66 | 1017.3 |
| 20260508133038 | 57 | 0 | 0.0 | 1.0 | 0.00 | 0.00 | 0.00 | 66 | 1017.3 |
| 20260508132530 | 57 | 0 | 0.0 | 2.0 | 0.00 | 0.00 | 0.00 | 65 | 1017.3 |
| 20260508132030 | 57 | 0 | 0.0 | 3.0 | 0.00 | 0.00 | 0.00 | 66 | 1017.1 |
| 20260508131544 | 57 | 0 | 1.0 | 3.0 | 0.00 | 0.00 | 0.00 | 63 | 1017.0 |
| 20260508131030 | 56 | 232 | 1.0 | 4.0 | 0.00 | 0.00 | 0.00 | 65 | 1017.0 |
| 20260508130528 | 56 | 232 | 1.0 | 4.0 | 0.00 | 0.00 | 0.00 | 67 | 1017.0 |
| 20260508130043 | 56 | 232 | 1.0 | 3.0 | 0.00 | 0.00 | 0.00 | 72 | 1016.9 |
| 20260508125532 | 56 | 233 | 0.0 | 3.0 | 0.00 | 0.00 | 0.00 | 73 | 1016.9 |
| 20260508125030 | 57 | 0 | 0.0 | 3.0 | 0.00 | 0.00 | 0.00 | 72 | 1016.9 |
| 20260508124539 | 58 | 0 | 0.0 | 1.0 | 0.00 | 0.00 | 0.00 | 68 | 1017.0 |
| 20260508124031 | 58 | 0 | 0.0 | 1.0 | 0.00 | 0.00 | 0.00 | 64 | 1016.9 |
| 20260508123531 | 58 | 0 | 0.0 | 1.0 | 0.00 | 0.00 | 0.00 | 63 | 1017.0 |
| 20260508123038 | 58 | 0 | 0.0 | 1.0 | 0.00 | 0.00 | 0.00 | 64 | 1017.0 |
| 20260508122532 | 58 | 0 | 0.0 | 1.0 | 0.00 | 0.00 | 0.00 | 64 | 1017.0 |
| 20260508122030 | 58 | 0 | 0.0 | 1.0 | 0.00 | 0.00 | 0.00 | 66 | 1016.9 |
| 20260508121537 | 58 | 223 | 0.0 | 2.0 | 0.00 | 0.00 | 0.00 | 68 | 1016.9 |
| 20260508121029 | 58 | 0 | 0.0 | 2.0 | 0.00 | 0.00 | 0.00 | 67 | 1017.0 |
| 20260508120534 | 57 | 0 | 0.0 | 2.0 | 0.00 | 0.00 | 0.00 | 67 | 1016.9 |
| 20260508120052 | 57 | 0 | 0.0 | 1.0 | 0.00 | 0.00 | 0.00 | 71 | 1016.8 |
| 20260508115530 | 57 | 0 | 0.0 | 1.0 | 0.00 | 0.00 | 0.00 | 73 | 1016.8 |
| 20260508115029 | 57 | 0 | 0.0 | 2.0 | 0.00 | 0.00 | 0.00 | 72 | 1016.8 |
| 20260508114541 | 58 | 0 | 0.0 | 2.0 | 0.00 | 0.00 | 0.00 | 73 | 1016.8 |
| 20260508114031 | 58 | 0 | 0.0 | 2.0 | 0.00 | 0.00 | 0.00 | 73 | 1016.8 |
| 20260508113533 | 58 | 0 | 0.0 | 2.0 | 0.00 | 0.00 | 0.00 | 73 | 1016.8 |
| 20260508113041 | 58 | 0 | 0.0 | 2.0 | 0.00 | 0.00 | 0.00 | 74 | 1016.8 |
| 20260508112531 | 58 | 0 | 0.0 | 3.0 | 0.00 | 0.00 | 0.00 | 73 | 1016.8 |
| 20260508112029 | 59 | 0 | 0.0 | 3.0 | 0.00 | 0.00 | 0.00 | 71 | 1016.8 |
| 20260508111552 | 59 | 0 | 0.0 | 3.0 | 0.00 | 0.00 | 0.00 | 72 | 1016.8 |
| 20260508111034 | 59 | 249 | 0.0 | 2.0 | 0.00 | 0.00 | 0.00 | 73 | 1016.8 |
| 20260508110531 | 59 | 273 | 0.0 | 3.0 | 0.00 | 0.00 | 0.00 | 72 | 1016.8 |
| 20260508110049 | 59 | 0 | 0.0 | 3.0 | 0.00 | 0.00 | 0.00 | 72 | 1016.8 |
| 20260508105531 | 59 | 0 | 0.0 | 3.0 | 0.00 | 0.00 | 0.00 | 72 | 1016.8 |
| 20260508105031 | 59 | 0 | 0.0 | 2.0 | 0.00 | 0.00 | 0.00 | 73 | 1016.7 |
| 20260508104533 | 59 | 0 | 0.0 | 2.0 | 0.00 | 0.00 | 0.00 | 75 | 1016.8 |
| 20260508104030 | 59 | 0 | 0.0 | 2.0 | 0.00 | 0.00 | 0.00 | 76 | 1016.8 |
| 20260508103529 | 59 | 241 | 0.0 | 2.0 | 0.00 | 0.00 | 0.00 | 79 | 1016.9 |
| 20260508103049 | 59 | 0 | 0.0 | 3.0 | 0.00 | 0.00 | 0.00 | 78 | 1016.9 |
| 20260508102530 | 59 | 0 | 0.0 | 3.0 | 0.00 | 0.00 | 0.00 | 79 | 1017.0 |
| 20260508102031 | 59 | 225 | 0.0 | 3.0 | 0.00 | 0.00 | 0.00 | 78 | 1016.9 |
| 20260508101543 | 59 | 0 | 0.0 | 3.0 | 0.00 | 0.00 | 0.00 | 78 | 1016.9 |
| 20260508101031 | 58 | 228 | 0.0 | 3.0 | 0.00 | 0.00 | 0.00 | 81 | 1016.9 |
| 20260508100531 | 58 | 228 | 1.0 | 3.0 | 0.00 | 0.00 | 0.00 | 83 | 1017.0 |
| 20260508100039 | 58 | 238 | 1.0 | 3.0 | 0.00 | 0.00 | 0.00 | 85 | 1016.9 |
| 20260508095530 | 59 | 238 | 0.0 | 1.0 | 0.00 | 0.00 | 0.00 | 85 | 1017.0 |
| 20260508095032 | 59 | 0 | 0.0 | 3.0 | 0.00 | 0.00 | 0.00 | 84 | 1017.0 |
| 20260508094558 | 59 | 0 | 0.0 | 3.0 | 0.00 | 0.00 | 0.00 | 85 | 1017.0 |
| 20260508094032 | 59 | 238 | 1.0 | 3.0 | 0.00 | 0.00 | 0.00 | 87 | 1017.0 |
| 20260508093532 | 59 | 0 | 0.0 | 2.0 | 0.00 | 0.00 | 0.00 | 87 | 1017.0 |
| 20260508093037 | 59 | 0 | 0.0 | 2.0 | 0.00 | 0.00 | 0.00 | 87 | 1017.0 |
| 20260508092529 | 59 | 238 | 0.0 | 2.0 | 0.00 | 0.00 | 0.00 | 88 | 1017.0 |
| 20260508092031 | 59 | 0 | 0.0 | 2.0 | 0.00 | 0.00 | 0.00 | 88 | 1017.0 |
| 20260508091540 | 59 | 238 | 0.0 | 2.0 | 0.00 | 0.00 | 0.00 | 88 | 1017.0 |
| 20260508091031 | 59 | 0 | 0.0 | 2.0 | 0.00 | 0.00 | 0.00 | 88 | 1017.1 |
| 20260508090530 | 59 | 0 | 0.0 | 2.0 | 0.00 | 0.00 | 0.00 | 88 | 1016.9 |
| 20260508090043 | 59 | 0 | 0.0 | 1.0 | 0.00 | 0.00 | 0.00 | 88 | 1016.9 |
| 20260508085529 | 59 | 0 | 0.0 | 1.0 | 0.00 | 0.00 | 0.00 | 88 | 1016.9 |
| 20260508085030 | 59 | 0 | 0.0 | 1.0 | 0.00 | 0.00 | 0.00 | 89 | 1016.9 |
| 20260508084537 | 59 | 0 | 0.0 | 2.0 | 0.00 | 0.00 | 0.00 | 89 | 1016.9 |
| 20260508084030 | 59 | 0 | 0.0 | 2.0 | 0.00 | 0.00 | 0.00 | 89 | 1017.0 |
| 20260508083529 | 59 | 0 | 0.0 | 2.0 | 0.00 | 0.00 | 0.00 | 89 | 1017.0 |
| 20260508083039 | 59 | 241 | 0.0 | 2.0 | 0.00 | 0.00 | 0.00 | 89 | 1016.9 |
| 20260508082528 | 60 | 0 | 0.0 | 2.0 | 0.00 | 0.00 | 0.00 | 89 | 1017.0 |
| 20260508082035 | 60 | 261 | 0.0 | 2.0 | 0.00 | 0.00 | 0.00 | 89 | 1017.0 |
| 20260508081542 | 60 | 261 | 0.0 | 1.0 | 0.00 | 0.00 | 0.00 | 89 | 1017.0 |
| 20260508081033 | 60 | 0 | 0.0 | 2.0 | 0.00 | 0.00 | 0.00 | 89 | 1017.0 |
| 20260508080530 | 60 | 0 | 0.0 | 2.0 | 0.00 | 0.00 | 0.00 | 89 | 1017.0 |
| 20260508080038 | 60 | 261 | 0.0 | 2.0 | 0.00 | 0.00 | 0.00 | 89 | 1016.9 |
| 20260508075529 | 60 | 0 | 0.0 | 2.0 | 0.00 | 0.00 | 0.00 | 88 | 1017.0 |
| 20260508075031 | 60 | 0 | 0.0 | 2.0 | 0.00 | 0.00 | 0.00 | 88 | 1017.0 |
| 20260508074549 | 60 | 0 | 0.0 | 2.0 | 0.00 | 0.00 | 0.00 | 87 | 1016.9 |
| 20260508074029 | 61 | 248 | 0.0 | 1.0 | 0.00 | 0.00 | 0.00 | 86 | 1017.0 |
| 20260508073531 | 61 | 0 | 0.0 | 1.0 | 0.00 | 0.00 | 0.00 | 86 | 1017.0 |
| 20260508073044 | 61 | 0 | 0.0 | 1.0 | 0.00 | 0.00 | 0.00 | 85 | 1017.0 |
| 20260508072530 | 62 | 0 | 0.0 | 0.0 | 0.00 | 0.00 | 0.00 | 85 | 1017.0 |
| 20260508072029 | 62 | 0 | 0.0 | 0.0 | 0.00 | 0.00 | 0.00 | 85 | 1017.0 |
| 20260508071542 | 62 | 0 | 0.0 | 0.0 | 0.00 | 0.00 | 0.00 | 85 | 1017.0 |
| 20260508071029 | 62 | 0 | 0.0 | 0.0 | 0.00 | 0.00 | 0.00 | 84 | 1017.0 |
| 20260508070529 | 62 | 0 | 0.0 | 0.0 | 0.00 | 0.00 | 0.00 | 84 | 1017.0 |
| 20260508070040 | 63 | 0 | 0.0 | 1.0 | 0.00 | 0.00 | 0.00 | 83 | 1016.9 |
| 20260508065533 | 63 | 0 | 0.0 | 1.0 | 0.00 | 0.00 | 0.00 | 83 | 1016.9 |
| 20260508065031 | 63 | 0 | 0.0 | 1.0 | 0.00 | 0.00 | 0.00 | 83 | 1016.8 |
| 20260508064549 | 63 | 0 | 0.0 | 1.0 | 0.00 | 0.00 | 0.00 | 83 | 1016.9 |
| 20260508064029 | 64 | 284 | 0.0 | 1.0 | 0.00 | 0.00 | 0.00 | 82 | 1016.8 |
| 20260508063531 | 64 | 0 | 0.0 | 1.0 | 0.00 | 0.00 | 0.00 | 82 | 1017.0 |
| 20260508063035 | 64 | 0 | 0.0 | 2.0 | 0.00 | 0.00 | 0.00 | 82 | 1017.2 |
| 20260508062529 | 64 | 0 | 0.0 | 2.0 | 0.00 | 0.00 | 0.00 | 82 | 1017.1 |
| 20260508062029 | 64 | 0 | 0.0 | 2.0 | 0.00 | 0.00 | 0.00 | 82 | 1017.2 |
| 20260508061539 | 64 | 0 | 0.0 | 2.0 | 0.00 | 0.00 | 0.00 | 82 | 1017.2 |
| 20260508061032 | 64 | 0 | 0.0 | 1.0 | 0.00 | 0.00 | 0.00 | 82 | 1017.1 |
| 20260508060531 | 64 | 0 | 0.0 | 1.0 | 0.00 | 0.00 | 0.00 | 81 | 1017.2 |
| 20260508060038 | 64 | 0 | 0.0 | 1.0 | 0.00 | 0.00 | 0.00 | 81 | 1017.2 |
| 20260508055530 | 65 | 0 | 0.0 | 1.0 | 0.00 | 0.00 | 0.00 | 80 | 1017.2 |
| 20260508055030 | 65 | 0 | 0.0 | 1.0 | 0.00 | 0.00 | 0.00 | 79 | 1017.2 |
| 20260508054539 | 66 | 0 | 0.0 | 1.0 | 0.00 | 0.00 | 0.00 | 78 | 1017.3 |
| 20260508054033 | 66 | 0 | 0.0 | 1.0 | 0.00 | 0.00 | 0.00 | 77 | 1017.2 |
| 20260508053531 | 67 | 0 | 0.0 | 0.0 | 0.00 | 0.00 | 0.00 | 76 | 1017.2 |
| 20260508053039 | 67 | 0 | 0.0 | 1.0 | 0.00 | 0.00 | 0.00 | 75 | 1017.2 |
| 20260508052531 | 67 | 0 | 0.0 | 2.0 | 0.00 | 0.00 | 0.00 | 74 | 1017.1 |
| 20260508052034 | 68 | 0 | 0.0 | 3.0 | 0.00 | 0.00 | 0.00 | 74 | 1017.2 |
| 20260508051539 | 68 | 228 | 0.0 | 3.0 | 0.00 | 0.00 | 0.00 | 73 | 1017.1 |
| 20260508051031 | 68 | 236 | 0.0 | 2.0 | 0.00 | 0.00 | 0.00 | 72 | 1017.2 |
| 20260508050531 | 68 | 238 | 1.0 | 2.0 | 0.00 | 0.00 | 0.00 | 72 | 1017.2 |
| 20260508050041 | 68 | 0 | 0.0 | 2.0 | 0.00 | 0.00 | 0.00 | 72 | 1017.3 |
| 20260508045530 | 68 | 238 | 1.0 | 2.0 | 0.00 | 0.00 | 0.00 | 72 | 1017.4 |
| 20260508045030 | 68 | 238 | 1.0 | 2.0 | 0.00 | 0.00 | 0.00 | 71 | 1017.3 |
| 20260508044537 | 69 | 238 | 0.0 | 2.0 | 0.00 | 0.00 | 0.00 | 70 | 1017.4 |
| 20260508044042 | 69 | 0 | 0.0 | 2.0 | 0.00 | 0.00 | 0.00 | 70 | 1017.3 |
| 20260508043530 | 69 | 0 | 0.0 | 2.0 | 0.00 | 0.00 | 0.00 | 70 | 1017.3 |
| 20260508043042 | 70 | 0 | 0.0 | 2.0 | 0.00 | 0.00 | 0.00 | 70 | 1017.4 |
| 20260508042531 | 70 | 0 | 0.0 | 2.0 | 0.00 | 0.00 | 0.00 | 70 | 1017.3 |
| 20260508042030 | 70 | 238 | 1.0 | 2.0 | 0.00 | 0.00 | 0.00 | 71 | 1017.2 |
| 20260508041543 | 70 | 238 | 1.0 | 2.0 | 0.00 | 0.00 | 0.00 | 71 | 1017.2 |
| 20260508041030 | 69 | 236 | 0.0 | 4.0 | 0.00 | 0.00 | 0.00 | 71 | 1017.2 |
| 20260508040532 | 69 | 236 | 1.0 | 4.0 | 0.00 | 0.00 | 0.00 | 72 | 1017.2 |
| 20260508040044 | 69 | 217 | 1.0 | 4.0 | 0.00 | 0.00 | 0.00 | 72 | 1017.1 |
| 20260508035532 | 69 | 0 | 0.0 | 1.0 | 0.00 | 0.01 | 0.00 | 71 | 1017.0 |
| 20260508035032 | 70 | 0 | 0.0 | 1.0 | 0.00 | 0.01 | 0.00 | 71 | 1017.0 |
| 20260508034539 | 70 | 0 | 0.0 | 1.0 | 0.00 | 0.01 | 0.00 | 71 | 1017.0 |
| 20260508034033 | 70 | 0 | 0.0 | 0.0 | 0.00 | 0.01 | 0.00 | 71 | 1016.9 |
| 20260508033531 | 70 | 0 | 0.0 | 1.0 | 0.00 | 0.01 | 0.00 | 70 | 1016.9 |
| 20260508033039 | 70 | 0 | 0.0 | 1.0 | 0.00 | 0.01 | 0.00 | 70 | 1016.9 |
| 20260508032531 | 70 | 0 | 0.0 | 2.0 | 0.00 | 0.01 | 0.00 | 70 | 1016.8 |
| 20260508032031 | 71 | 0 | 0.0 | 2.0 | 0.00 | 0.01 | 0.00 | 69 | 1016.8 |
| 20260508031539 | 71 | 0 | 0.0 | 2.0 | 0.00 | 0.01 | 0.00 | 69 | 1016.8 |
| 20260508031030 | 71 | 120 | 1.0 | 2.0 | 0.00 | 0.01 | 0.00 | 68 | 1016.7 |
| 20260508030531 | 71 | 343 | 0.0 | 1.0 | 0.00 | 0.01 | 0.00 | 67 | 1016.7 |
| 20260508030035 | 72 | 0 | 0.0 | 1.0 | 0.00 | 0.01 | 0.00 | 67 | 1016.6 |
| 20260508025527 | 72 | 0 | 0.0 | 1.0 | 0.00 | 0.01 | 0.00 | 66 | 1016.5 |
| 20260508025031 | 73 | 0 | 0.0 | 1.0 | 0.00 | 0.01 | 0.00 | 66 | 1016.5 |
| 20260508024543 | 73 | 0 | 0.0 | 1.0 | 0.00 | 0.01 | 0.00 | 65 | 1016.5 |
| 20260508024030 | 73 | 0 | 0.0 | 3.0 | 0.00 | 0.01 | 0.00 | 64 | 1016.4 |
| 20260508023531 | 74 | 0 | 0.0 | 4.0 | 0.00 | 0.01 | 0.00 | 63 | 1016.5 |
| 20260508023039 | 74 | 334 | 1.0 | 4.0 | 0.00 | 0.01 | 0.00 | 63 | 1016.4 |
| 20260508022530 | 74 | 17 | 1.0 | 3.0 | 0.00 | 0.01 | 0.00 | 62 | 1016.4 |
| 20260508022031 | 74 | 341 | 1.0 | 3.0 | 0.00 | 0.01 | 0.00 | 61 | 1016.4 |
| 20260508021541 | 75 | 316 | 0.0 | 3.0 | 0.00 | 0.01 | 0.00 | 62 | 1016.4 |
| 20260508021030 | 75 | 304 | 0.0 | 3.0 | 0.00 | 0.01 | 0.00 | 61 | 1016.3 |
| 20260508020530 | 75 | 313 | 1.0 | 3.0 | 0.00 | 0.01 | 0.00 | 61 | 1016.4 |
| 20260508020038 | 75 | 323 | 1.0 | 3.0 | 0.00 | 0.01 | 0.00 | 60 | 1016.5 |
| 20260508015531 | 76 | 323 | 0.0 | 3.0 | 0.00 | 0.01 | 0.00 | 60 | 1016.4 |
| 20260508015029 | 76 | 335 | 1.0 | 4.0 | 0.00 | 0.01 | 0.00 | 59 | 1016.5 |
| 20260508014548 | 76 | 0 | 1.0 | 4.0 | 0.00 | 0.01 | 0.00 | 59 | 1016.5 |
| 20260508014031 | 76 | 331 | 1.0 | 4.0 | 0.00 | 0.01 | 0.00 | 58 | 1016.4 |
| 20260508013530 | 76 | 324 | 0.0 | 2.0 | 0.00 | 0.01 | 0.00 | 60 | 1016.5 |
| 20260508013046 | 76 | 0 | 0.0 | 4.0 | 0.00 | 0.01 | 0.00 | 59 | 1016.5 |
| 20260508012532 | 77 | 348 | 0.0 | 4.0 | 0.00 | 0.01 | 0.00 | 58 | 1016.5 |
| 20260508012031 | 77 | 5 | 1.0 | 4.0 | 0.00 | 0.01 | 0.00 | 59 | 1016.5 |
| 20260508011543 | 77 | 18 | 2.0 | 6.0 | 0.00 | 0.01 | 0.00 | 58 | 1016.5 |
| 20260508011031 | 77 | 360 | 3.0 | 6.0 | 0.00 | 0.01 | 0.00 | 57 | 1016.5 |
| 20260508010530 | 77 | 0 | 2.0 | 4.0 | 0.00 | 0.01 | 0.00 | 57 | 1016.5 |
| 20260508010038 | 77 | 335 | 1.0 | 4.0 | 0.00 | 0.01 | 0.00 | 58 | 1016.6 |
| 20260508005534 | 77 | 219 | 1.0 | 4.0 | 0.00 | 0.01 | 0.00 | 56 | 1016.6 |
| 20260508005029 | 78 | 0 | 1.0 | 4.0 | 0.00 | 0.01 | 0.00 | 57 | 1016.7 |
| 20260508004537 | 78 | 80 | 1.0 | 5.0 | 0.00 | 0.01 | 0.00 | 58 | 1016.7 |
| 20260508004033 | 78 | 333 | 0.0 | 5.0 | 0.00 | 0.01 | 0.00 | 58 | 1016.7 |
| 20260508003532 | 78 | 5 | 1.0 | 5.0 | 0.00 | 0.01 | 0.00 | 58 | 1016.7 |
| 20260508003057 | 77 | 347 | 0.0 | 5.0 | 0.00 | 0.01 | 0.00 | 60 | 1016.8 |
| 20260508002531 | 77 | 140 | 2.0 | 5.0 | 0.00 | 0.01 | 0.00 | 59 | 1016.9 |
| 20260508002034 | 77 | 151 | 2.0 | 7.0 | 0.00 | 0.01 | 0.00 | 59 | 1016.8 |
| 20260508001544 | 77 | 142 | 3.0 | 7.0 | 0.00 | 0.01 | 0.00 | 56 | 1016.8 |
| 20260508001031 | 77 | 331 | 1.0 | 5.0 | 0.00 | 0.01 | 0.00 | 58 | 1016.8 |
| 20260508000528 | 77 | 129 | 2.0 | 5.0 | 0.00 | 0.01 | 0.00 | 58 | 1016.7 |
| 20260508000045 | 78 | 169 | 1.0 | 5.0 | 0.00 | 0.01 | 0.00 | 60 | 1016.7 |
| 20260507235530 | 78 | 153 | 2.0 | 5.0 | 0.00 | 0.01 | 0.00 | 57 | 1016.8 |
| 20260507235028 | 78 | 50 | 0.0 | 4.0 | 0.00 | 0.01 | 0.00 | 57 | 1016.8 |
| 20260507234539 | 77 | 130 | 1.0 | 7.0 | 0.00 | 0.01 | 0.00 | 59 | 1016.8 |
| 20260507234030 | 76 | 179 | 2.0 | 7.0 | 0.00 | 0.01 | 0.00 | 58 | 1016.9 |
| 20260507233529 | 77 | 140 | 3.0 | 7.0 | 0.00 | 0.01 | 0.00 | 57 | 1016.8 |
| 20260507233037 | 77 | 126 | 2.0 | 7.0 | 0.00 | 0.01 | 0.00 | 59 | 1017.0 |
| 20260507232531 | 77 | 160 | 2.0 | 5.0 | 0.00 | 0.01 | 0.00 | 57 | 1017.0 |
| 20260507232030 | 77 | 148 | 1.0 | 6.0 | 0.00 | 0.01 | 0.00 | 58 | 1017.1 |
| 20260507231543 | 77 | 157 | 2.0 | 6.0 | 0.00 | 0.01 | 0.00 | 59 | 1017.1 |
| 20260507231032 | 76 | 157 | 2.0 | 7.0 | 0.00 | 0.01 | 0.00 | 61 | 1017.2 |
| 20260507230533 | 76 | 152 | 3.0 | 7.0 | 0.00 | 0.01 | 0.00 | 61 | 1017.3 |
| 20260507230042 | 76 | 142 | 3.0 | 8.0 | 0.00 | 0.01 | 0.00 | 61 | 1017.3 |
| 20260507225528 | 76 | 321 | 4.0 | 8.0 | 0.00 | 0.01 | 0.00 | 61 | 1017.4 |
| 20260507225031 | 76 | 168 | 2.0 | 7.0 | 0.00 | 0.01 | 0.00 | 61 | 1017.3 |
| 20260507224557 | 76 | 126 | 2.0 | 8.0 | 0.00 | 0.01 | 0.00 | 61 | 1017.3 |
| 20260507224030 | 76 | 128 | 3.0 | 8.0 | 0.00 | 0.01 | 0.00 | 62 | 1017.4 |
| 20260507223530 | 77 | 146 | 2.0 | 5.0 | 0.00 | 0.01 | 0.00 | 60 | 1017.4 |
| 20260507223041 | 77 | 0 | 2.0 | 6.0 | 0.00 | 0.01 | 0.00 | 59 | 1017.5 |
| 20260507222529 | 78 | 146 | 2.0 | 6.0 | 0.00 | 0.01 | 0.00 | 58 | 1017.6 |
| 20260507222028 | 78 | 49 | 2.0 | 6.0 | 0.00 | 0.01 | 0.00 | 58 | 1017.7 |
| 20260507221534 | 78 | 155 | 2.0 | 6.0 | 0.00 | 0.01 | 0.00 | 57 | 1017.7 |
| 20260507221031 | 78 | 0 | 2.0 | 8.0 | 0.00 | 0.01 | 0.00 | 58 | 1017.7 |
| 20260507220532 | 78 | 324 | 3.0 | 8.0 | 0.00 | 0.01 | 0.00 | 57 | 1017.8 |
| 20260507220042 | 78 | 47 | 2.0 | 8.0 | 0.00 | 0.01 | 0.00 | 58 | 1017.8 |
| 20260507215532 | 78 | 132 | 2.0 | 8.0 | 0.00 | 0.01 | 0.00 | 58 | 1017.8 |
| 20260507215030 | 77 | 332 | 1.0 | 7.0 | 0.00 | 0.01 | 0.00 | 59 | 1017.9 |